TimeCDT,TemperatureF,Dew PointF,Humidity,Sea Level PressureIn,VisibilityMPH,Wind Direction,Wind SpeedMPH,Gust SpeedMPH,PrecipitationIn,Events,Conditions,WindDirDegrees,DateUTC
12:15 AM,61.2,40.3,46,30.02,10.0,NE,4.6,-,N/A,,Overcast,50,2013-05-08 05:15:00
12:35 AM,61.2,40.5,47,30.01,10.0,NE,4.6,-,N/A,,Overcast,40,2013-05-08 05:35:00
12:55 AM,61.5,40.3,46,30.01,10.0,NE,4.6,-,N/A,,Overcast,40,2013-05-08 05:55:00
1:15 AM,61.5,40.3,46,30.00,10.0,NE,3.5,-,N/A,,Overcast,40,2013-05-08 06:15:00
1:35 AM,61.2,40.5,47,30.00,10.0,NE,3.5,-,N/A,,Overcast,50,2013-05-08 06:35:00
1:55 AM,60.3,42.3,51,30.00,10.0,Calm,Calm,-,N/A,,Overcast,0,2013-05-08 06:55:00
2:15 AM,60.3,40.5,48,30.00,10.0,Calm,Calm,-,N/A,,Overcast,0,2013-05-08 07:15:00
2:35 AM,59.2,42.1,53,30.00,10.0,Calm,Calm,-,N/A,,Overcast,0,2013-05-08 07:35:00
2:55 AM,58.5,41.9,54,30.00,10.0,Calm,Calm,-,N/A,,Overcast,0,2013-05-08 07:55:00
3:15 AM,59.0,42.1,53,30.00,10.0,Calm,Calm,-,N/A,,Overcast,0,2013-05-08 08:15:00
3:35 AM,58.8,43.0,56,30.00,10.0,Calm,Calm,-,N/A,,Overcast,0,2013-05-08 08:35:00
3:55 AM,56.1,43.5,63,30.00,10.0,East,3.5,-,N/A,,Mostly Cloudy,90,2013-05-08 08:55:00
4:15 AM,55.2,44.4,67,30.00,10.0,Calm,Calm,-,N/A,,Scattered Clouds,0,2013-05-08 09:15:00
4:35 AM,53.1,43.9,71,30.00,10.0,Calm,Calm,-,N/A,,Scattered Clouds,0,2013-05-08 09:35:00
4:55 AM,51.6,44.1,75,30.00,10.0,Calm,Calm,-,N/A,,Scattered Clouds,0,2013-05-08 09:55:00
5:15 AM,51.1,45.0,80,30.01,10.0,Calm,Calm,-,N/A,,Scattered Clouds,0,2013-05-08 10:15:00
5:35 AM,51.3,45.3,80,30.01,10.0,Calm,Calm,-,N/A,,Scattered Clouds,0,2013-05-08 10:35:00
5:55 AM,50.5,46.4,86,30.01,10.0,Calm,Calm,-,N/A,,Mostly Cloudy,0,2013-05-08 10:55:00
6:15 AM,50.7,47.3,88,30.02,10.0,Calm,Calm,-,N/A,,Scattered Clouds,0,2013-05-08 11:15:00
6:35 AM,51.6,48.4,89,30.03,10.0,Calm,Calm,-,N/A,,Clear,0,2013-05-08 11:35:00
6:55 AM,55.8,49.6,80,30.04,10.0,Calm,Calm,-,N/A,,Clear,0,2013-05-08 11:55:00
7:15 AM,59.4,49.5,70,30.04,10.0,Calm,Calm,-,N/A,,Clear,0,2013-05-08 12:15:00
7:35 AM,62.2,49.6,63,30.04,10.0,Calm,Calm,-,N/A,,Clear,0,2013-05-08 12:35:00
7:55 AM,63.7,50.4,62,30.04,10.0,Calm,Calm,-,N/A,,Clear,0,2013-05-08 12:55:00
8:15 AM,64.6,51.3,62,30.04,10.0,Calm,Calm,-,N/A,,Clear,0,2013-05-08 13:15:00
8:35 AM,66.4,52.2,60,30.04,10.0,West,4.6,-,N/A,,Clear,280,2013-05-08 13:35:00
8:55 AM,66.7,52.2,59,30.04,10.0,Calm,Calm,-,N/A,,Scattered Clouds,0,2013-05-08 13:55:00
9:15 AM,68.2,51.6,55,30.04,10.0,West,3.5,-,N/A,,Scattered Clouds,260,2013-05-08 14:15:00
9:35 AM,70.5,50.4,49,30.04,10.0,North,3.5,-,N/A,,Scattered Clouds,360,2013-05-08 14:35:00
9:55 AM,70.5,49.6,47,30.04,10.0,Calm,Calm,-,N/A,,Clear,0,2013-05-08 14:55:00
10:15 AM,71.2,50.4,48,30.04,10.0,Calm,Calm,-,N/A,,Clear,0,2013-05-08 15:15:00
10:35 AM,72.5,50.0,45,30.04,10.0,WNW,3.5,-,N/A,,Clear,300,2013-05-08 15:35:00
10:55 AM,72.9,46.9,40,30.04,10.0,NNW,5.8,-,N/A,,Clear,340,2013-05-08 15:55:00
11:15 AM,73.6,46.6,38,30.04,10.0,NNE,3.5,-,N/A,,Clear,30,2013-05-08 16:15:00
11:35 AM,73.9,48.0,40,30.04,10.0,North,8.1,-,N/A,,Clear,350,2013-05-08 16:35:00
11:55 AM,74.5,48.4,40,30.03,10.0,North,9.2,-,N/A,,Clear,360,2013-05-08 16:55:00
12:15 PM,75.0,47.3,37,30.03,10.0,NNE,5.8,-,N/A,,Clear,20,2013-05-08 17:15:00
12:35 PM,75.2,48.6,39,30.03,10.0,NNW,9.2,16.1,N/A,,Clear,330,2013-05-08 17:35:00
12:55 PM,74.5,47.5,38,30.02,10.0,NW,9.2,16.1,N/A,,Clear,320,2013-05-08 17:55:00
1:15 PM,75.6,46.8,36,30.02,10.0,North,12.7,17.3,N/A,,Clear,360,2013-05-08 18:15:00
1:35 PM,75.6,45.9,35,30.01,10.0,North,12.7,-,N/A,,Clear,360,2013-05-08 18:35:00
1:55 PM,75.4,45.7,35,30.01,10.0,North,12.7,18.4,N/A,,Clear,350,2013-05-08 18:55:00
2:15 PM,75.4,46.0,35,30.01,10.0,North,13.8,17.3,N/A,,Clear,350,2013-05-08 19:15:00
2:35 PM,75.6,43.9,32,30.01,10.0,North,13.8,-,N/A,,Clear,350,2013-05-08 19:35:00
2:55 PM,75.6,44.4,33,30.01,10.0,NNW,12.7,-,N/A,,Clear,340,2013-05-08 19:55:00
3:35 PM,75.6,43.9,32,30.00,10.0,North,13.8,-,N/A,,Clear,10,2013-05-08 20:35:00
3:55 PM,75.0,43.0,32,29.99,10.0,NNW,13.8,18.4,N/A,,Clear,340,2013-05-08 20:55:00
4:15 PM,74.3,41.9,31,29.99,10.0,NNW,12.7,-,N/A,,Clear,340,2013-05-08 21:15:00
4:35 PM,73.6,42.3,32,29.99,10.0,North,11.5,-,N/A,,Clear,350,2013-05-08 21:35:00
4:55 PM,73.6,42.4,33,29.99,10.0,North,10.4,-,N/A,,Clear,350,2013-05-08 21:55:00
5:15 PM,73.6,43.0,33,29.99,10.0,North,10.4,-,N/A,,Clear,10,2013-05-08 22:15:00
5:35 PM,73.6,43.0,33,29.99,10.0,North,10.4,-,N/A,,Clear,10,2013-05-08 22:35:00
5:55 PM,73.4,42.6,33,29.99,10.0,NNE,10.4,-,N/A,,Clear,30,2013-05-08 22:55:00
6:15 PM,73.2,44.1,35,29.99,10.0,North,8.1,-,N/A,,Clear,10,2013-05-08 23:15:00
6:35 PM,72.5,43.3,35,29.99,10.0,NNE,6.9,-,N/A,,Clear,30,2013-05-08 23:35:00
6:55 PM,70.9,44.4,39,29.99,10.0,NNE,6.9,-,N/A,,Clear,20,2013-05-08 23:55:00
7:15 PM,68.5,43.9,41,29.99,10.0,North,4.6,-,N/A,,Clear,360,2013-05-09 00:15:00
7:35 PM,66.0,43.9,45,29.99,7.0,Calm,Calm,-,N/A,,Clear,0,2013-05-09 00:35:00
7:55 PM,62.6,45.0,52,29.99,10.0,North,4.6,-,N/A,,Clear,360,2013-05-09 00:55:00
8:15 PM,61.7,46.4,57,29.99,7.0,NNE,3.5,-,N/A,,Clear,20,2013-05-09 01:15:00
8:35 PM,59.9,44.8,57,29.99,7.0,Calm,Calm,-,N/A,,Clear,0,2013-05-09 01:35:00
8:55 PM,60.1,45.7,59,30.00,10.0,Calm,Calm,-,N/A,,Clear,0,2013-05-09 01:55:00
9:15 PM,57.9,44.8,62,30.01,10.0,Calm,Calm,-,N/A,,Clear,0,2013-05-09 02:15:00
9:35 PM,56.3,45.7,68,30.01,10.0,Calm,Calm,-,N/A,,Clear,0,2013-05-09 02:35:00
10:15 PM,56.5,47.1,71,30.01,10.0,Calm,Calm,-,N/A,,Scattered Clouds,0,2013-05-09 03:15:00
10:35 PM,53.6,46.0,76,30.01,10.0,Calm,Calm,-,N/A,,Clear,0,2013-05-09 03:35:00
11:35 PM,52.5,45.0,75,29.99,10.0,Calm,Calm,-,N/A,,Scattered Clouds,0,2013-05-09 04:35:00
11:55 PM,52.3,47.7,84,30.00,10.0,Calm,Calm,-,N/A,,Clear,0,2013-05-09 04:55:00